Location: Rounton
(54.4000°N, 1.3500°W)
Time: 14:44:22
(UTC+00:00)

Transit 2A - Pass Details

Date: 01 December 2021
Orbit: 591 x 967 km, 66.7° (Epoch: 21 January)

Event Time Altitude Azimuth Distance (km) Brightness Sun altitude
Rises 08:59:56 0° 317° (NW) 3,643 8.8 5.1°
Reaches altitude 10° 09:02:30 10° 317° (NW) 2,710 8.2 5.3°
Maximum altitude 09:08:54 77° 233° (SW) 995 6.8 5.9°
Drops below altitude 10° 09:15:09 10° 149° (SSE) 2,646 11.7 6.4°
Sets 09:17:38 0° 147° (SSE) 3,552 12.1 6.7°
